TIME,DELAY(SENSOR),PRES,OXYGEN,RAWTEMP,T(OPTODE),TCPHASE,FLUOR,BETA(BETA700),BETA(BETA412),BETA(BETA440),CDOM,C(CSC),ED(ED412.40),ED(ED444.00),ED(ED489.70),ED(ED554.30),LU(LU411.80),LU(LU443.40),LU(LU489.60),LU(LU554.10),COMP,TILTX,TILTY,CHECK
1353123960,5807,883.2399902343750000,44.4906005859375000,661.0128173828125000,4.5946240425109860,54.3412818908691400,53,101,86,81,80,15058,2147755382,2147420086,2148010304,2147874322,2147639286,2147060370,2148260754,2147196854,470,4,13,39674
1353127556,5810,945.0900268554688000,47.7528381347656250,668.4522094726562000,4.3493142127990720,53.9655418395996100,53,100,89,79,81,15060,2147758473,2147419026,2148007552,2147874432,2147640036,2147053494,2148260928,2147197229,3257,4,13,4302
1353131156,5809,960.8699951171875000,48.3990898132324200,671.9349975585938000,4.2342572212219240,53.9156494140625000,53,99,86,80,81,15060,2147756342,2147418633,2148005824,2147872841,2147641453,2147052818,2148262875,2147199926,319,4,13,59180
1353134756,5809,990.7100219726562000,48.9423408508300800,674.4030761718750000,4.1526370048522950,53.8689994812011700,52,109,89,78,81,15065,2147758546,2147422354,2148011190,2147871634,2147640256,2147054555,2148264612,2147197019,2831,4,13,63084
1353138356,5809,992.6500244140625000,48.8728981018066400,674.2728271484375000,4.1569461822509770,53.8833389282226560,52,100,85,78,81,15060,2147760676,2147421449,2148007972,2147876041,2147642651,2147054171,2148258806,2147195986,2816,4,13,4982
1353141956,5809,996.8499755859375000,49.0749893188476560,675.1121826171875000,4.1291708946228030,53.8615112304687500,53,100,86,80,80,15060,2147756214,2147421577,2148008950,2147876452,2147644269,2147053641,2148260306,2147195958,3478,4,13,36827
1353145556,5806,1001.6599731445312000,48.6897201538085940,674.3942871093750000,4.1529288291931150,53.9082908630371100,53,100,89,78,81,15059,2147757229,2147422217,2148005641,2147876004,2147639780,2147055552,2148260781,2147194514,3,4,13,46201
1353149156,5804,1011.4699707031250000,48.3937416076660160,673.3519287109375000,4.1874070167541500,53.9382705688476560,52,97,88,79,82,15062,2147755483,2147421970,2148006363,2147875794,2147639369,2147053120,2148261120,2147196598,3031,4,13,52618
1353152756,5808,1012.5700073242188000,48.2355690002441400,673.1350708007812000,4.1945781707763670,53.9553794860839840,53,103,85,78,80,15063,2147760466,2147420041,2148007424,2147875648,2147642267,2147057078,2148261979,2147199341,3339,4,13,4744
1353156356,5809,1007.6099853515625000,48.1144218444824200,673.7299804687500000,4.1749019622802730,53.9790687561035160,53,98,90,79,81,15059,2147760548,2147420672,2148008100,2147877467,2147638756,2147053092,2148263469,2147198262,3544,4,13,17099
1353159956,5809,1012.5700073242188000,48.0240516662597660,673.0117187500000000,4.1986579895019530,53.9815902709960940,53,100,88,78,82,15063,2147757220,2147420288,2148007113,2147871753,2147643894,2147056201,2148261385,2147194477,83,4,13,7934
1353163556,5812,1009.8599853515625000,47.8606605529785160,673.2034912109375000,4.1923160552978520,54.0102081298828100,53,98,88,79,81,15060,2147759113,2147423296,2148007670,2147871652,2147643611,2147056466,2148259264,2147193974,3582,4,13,6520
1353167156,5811,1003.2199707031250000,47.9808883666992200,673.9652709960938000,4.1671180725097660,54.0029602050781250,52,100,90,78,80,15062,2147756781,2147420836,2148008109,2147873206,2147640246,2147053010,2148262546,2147197229,3446,4,13,46099
1353170756,5809,1006.4500122070312000,48.7999610900878900,675.3477783203125000,4.1213779449462890,53.9049186706543000,52,100,85,80,79,15062,2147757202,2147420662,2148010450,2147872420,2147638281,2147052205,2148262198,2147197001,3584,4,13,49789
1353174356,5809,1002.7800292968750000,48.7859191894531250,675.8660278320312000,4.1042270660400390,53.9124107360839840,53,98,83,78,83,15063,2147754221,2147422345,2148009974,2147876818,2147641252,2147051318,2148263085,2147194870,3541,4,13,12075
1353177956,5809,996.2500000000000000,49.0008811950683600,676.8201293945312000,4.0726380348205570,53.8917884826660160,52,99,91,80,81,15058,2147755254,2147420169,2148010395,2147874130,2147643922,2147053293,2148265097,2147194240,3562,4,13,24646
1353181556,5806,1003.0200195312500000,49.3251304626464840,677.7327270507812000,4.0424160957336430,53.8587684631347660,53,99,88,78,81,14992,2147757211,2147422070,2148007597,2147873490,2147638116,2147057947,2148267840,2147197110,3571,4,13,3021
1353185156,5808,1009.1400146484375000,49.3294296264648440,676.7711791992188000,4.0742588043212890,53.8506317138671900,53,98,88,80,82,14990,2147757677,2147421787,2148010322,2147874157,2147642779,2147056987,2148264045,2147195456,519,4,13,58577
1353188756,5812,1009.2899780273438000,49.3712806701660160,676.5349121093750000,4.0820832252502440,53.8387184143066400,52,97,89,79,82,14987,2147756489,2147420800,2148006070,2147874624,2147641179,2147057270,2148264667,2147195666,36,5,13,48409
1353192356,5809,1003.6699829101562000,48.9639282226562500,676.7119750976562000,4.0762200355529785,53.8999214172363300,52,99,89,79,81,14987,2147759707,2147421019,2148007323,2147872246,2147643090,2147058889,2148265069,2147192475,524,4,13,33478
1353195956,5807,1020.5499877929688000,48.4029006958007800,674.1251831054688000,4.1618270874023440,53.9476089477539060,52,98,87,78,81,14985,2147755328,2147419730,2148010386,2147875154,2147641042,2147058614,2148261403,2147198308,6,5,13,4005
1353199556,5808,1020.0100097656250000,47.5818099975585940,672.7249755859375000,4.2081389427185060,54.0447502136230500,52,100,88,80,81,14984,2147756342,2147419446,2148005860,2147872667,2147639853,2147053997,2148259035,2147194157,156,4,13,27202
1353203156,5806,1020.7100219726562000,47.6078796386718750,672.7330932617188000,4.2078700065612790,54.0362510681152340,52,99,85,79,81,14983,2147758930,2147421348,2148004909,2147874176,2147639945,2147056064,2148264758,2147197229,173,4,13,50669
1353206756,5810,1015.9500122070312000,47.1307106018066400,673.2258300781250000,4.1915779113769530,54.1113891601562500,53,99,91,79,80,14983,2147755382,2147419977,2148009115,2147874441,2147637686,2147058953,2148261942,2147194925,3536,4,13,19137
1353210356,5810,1019.2600097656250000,47.6005210876464840,673.2545166015625000,4.1906299591064450,54.0441703796386700,53,99,88,81,82,14984,2147757641,2147420928,2148007488,2147873042,2147640301,2147056384,2148262308,2147198043,3436,4,13,37694
1353213956,5809,1015.4699707031250000,47.9756088256835940,674.6168823242188000,4.1455631256103520,54.0112915039062500,51,97,87,79,81,14984,2147756937,2147422802,2148010002,2147871396,2147640594,2147057124,2148265161,2147194002,136,4,13,53442
1353217556,5807,1010.1400146484375000,48.1624794006347660,675.4976806640625000,4.1164169311523440,53.9921188354492200,52,100,91,78,81,14978,2147757412,2147424064,2148008896,2147875894,2147640841,2147054281,2148264027,2147195830,795,4,13,26506
1353221156,5812,1005.4699707031250000,48.9416007995605500,676.0302124023438000,4.0987892150878910,53.8943595886230500,53,99,87,79,81,14983,2147757037,2147421138,2148011163,2147876434,2147638345,2147059108,2148266944,2147193152,375,5,13,40464
1353224756,5810,1008.2000122070312000,48.6921806335449200,677.0120239257812000,4.0662841796875000,53.9363708496093750,52,98,93,78,81,14983,2147758153,2147418779,2148008320,2147875456,2147642258,2147057782,2148266761,2147193408,3588,4,13,20810
1353228356,5807,1017.8599853515625000,49.1334190368652340,677.0032958984375000,4.0665721893310550,53.8769912719726560,52,98,85,78,81,14983,2147757266,2147419584,2148007670,2147878016,2147642523,2147052982,2148263113,2147199716,557,4,13,22996
1353231956,5809,1016.2600097656250000,48.5326194763183600,676.7932739257812000,4.0735259056091310,53.9607200622558600,52,99,85,80,81,14974,2147756928,2147419629,2148011584,2147876726,2147641325,2147057216,2148262656,2147196662,620,4,13,27247
1353235556,5809,1018.8300170898438000,49.0049591064453100,675.7548217773438000,4.1079058647155760,53.8814582824707000,53,99,88,79,81,14978,2147755556,2147420772,2148009545,2147878080,2147641435,2147059730,2148262756,2147194432,3581,4,13,32394
1353239156,5808,1027.5100097656250000,47.9857406616210940,674.6206054687500000,4.1454410552978520,54.0049896240234400,52,99,87,78,81,14980,2147755492,2147419894,2148008667,2147875593,2147642770,2147053366,2148264777,2147194788,481,4,13,59783
1353242756,5807,1020.4500122070312000,47.3846511840820300,674.5313110351562000,4.1483941078186035,54.0915412902832000,53,97,88,79,81,14977,2147752813,2147420726,2148012644,2147874605,2147640210,2147063853,2148265462,2147195977,58,4,13,43112
1353246356,5811,1023.8900146484375000,47.4440498352050800,674.4199829101562000,4.1520791053771970,54.0813484191894500,53,120,86,78,82,14977,2147756973,2147420644,2148011510,2147876196,2147642230,2147061129,2148262765,2147198948,96,5,13,14985
1353249956,5810,1023.0900268554688000,47.4860305786132800,674.6472778320312000,4.1445579528808590,54.0753784179687500,52,100,87,79,82,14976,2147754624,2147418660,2148005805,2147874441,2147646244,2147060132,2148264914,2147195108,3533,4,13,12211
1353253556,5808,1022.2600097656250000,47.9688606262207000,674.0070800781250000,4.1657347679138180,54.0039215087890600,53,100,90,79,81,14976,2147756022,2147420918,2148009426,2147876562,2147643629,2147059227,2148266852,2147198820,440,4,13,27700
1353257156,5809,1024.2500000000000000,47.2308807373046900,674.6132812500000000,4.1456809043884280,54.1117706298828100,52,102,90,79,80,14978,2147755840,2147420205,2148009261,2147876589,2147640155,2147055716,2148263789,2147194166,50,5,13,43102
1353260756,5807,1016.9899902343750000,48.0257911682128900,675.0908203125000000,4.1298809051513670,54.0048408508300800,52,100,88,79,80,14979,2147758208,2147421376,2148012416,2147874459,2147643812,2147059785,2148262070,2147195300,3530,4,13,10312
1353264356,5811,1010.1099853515625000,49.0529212951660160,677.5791015625000000,4.0475039482116700,53.8971214294433600,52,98,81,79,81,14978,2147754816,2147420754,2148010276,2147875456,2147642230,2147060626,2148264082,2147192000,350,4,13,35581
1353267955,5808,1022.7999877929688000,49.2694091796875000,676.9669189453125000,4.0677800178527830,53.8580284118652340,53,100,85,79,81,15150,2147754916,2147422765,2148009289,2147874349,2147643419,2147058029,2148260992,2147195556,148,4,13,53789
